Regional Weather Roundup
Issued by NWS

Home | Current Version | Previous Version | Text Only | Print | Product List | Glossary Off
Versions: 1 2 3 4 5 6 7 8 9 10 11 12 13 14 15 16 17 18 19 20 21 22 23 24 25 26 27 28 29 30 31 32 33 34 35 36 37 38 39 40 41 42 43 44 45 46 47 48 49 50

000
ASUS45 KCYS 021610
RWRWY

WYOMING REGIONAL WEATHER ROUNDUP
NATIONAL WEATHER SERVICE CHEYENNE WY
1000 AM MDT SUN AUG 02 2015

NOTE:  "FAIR" INDICATES FEW OR NO CLOUDS BELOW 12,000 FEET
WITH NO SIGNIFICANT WEATHER AND/OR OBSTRUCTIONS TO VISIBILITY.

WYZ001-021700-
YELLOWSTONE NATIONAL PARK

CITY           SKY/WX    TMP DP  RH WIND       PRES   REMARKS
LK YELLOWSTONE   N/A     59  46  62 CALM      30.36S
W YELLOWSTONE  NOT AVBL

$$
WYZ002>013-054>058-071-098>099-021700-
NORTHERN WYOMING

CITY           SKY/WX    TMP DP  RH WIND       PRES   REMARKS
JACKSON        SUNNY     61  36  39 CALM      30.27S
CODY           FAIR      75  45  33 N9        30.13R
GREYBULL       FAIR      76  31  19 E5        30.03S
WORLAND        FAIR      77  30  17 W5        30.05R
SHERIDAN       FAIR      80  48  32 CALM      30.02S
BUFFALO        FAIR      86  35  16 N7        30.08R
GILLETTE       FAIR      83  38  20 CALM      30.03S
HULETT         FAIR      75  52  43 E9        30.05R
NEWCASTLE      FAIR      79  52  38 MISG      30.03F

$$
WYZ014>020-022>026-101>103-021700-
CENTRAL WYOMING

CITY           SKY/WX    TMP DP  RH WIND       PRES   REMARKS
BIG PINEY      FAIR      71  38  29 VRB3      30.27S
PINEDALE       FAIR      72  32  23 NW6       30.27F
DUBOIS         FAIR      70  30  23 CALM      30.28S
LANDER         FAIR      77  32  19 CALM      30.14S
RIVERTON       FAIR      77  33  20 VRB5      30.15R
CASPER         FAIR      79  40  24 SW14      30.12S
DOUGLAS        FAIR      80  39  23 NW6       30.09F

$$
WYZ021-027>030-104>119-021700-
SOUTHERN WYOMING

CITY           SKY/WX    TMP DP  RH WIND       PRES   REMARKS
EVANSTON       FAIR      72  30  21 CALM      30.25S
KEMMERER       FAIR      73  30  20 N3        30.26F
FORT BRIDGER   SUNNY     75  28  17 N7        30.28R
ROCK SPRINGS   FAIR      72  33  24 CALM      30.23S
DIXON          FAIR      76  41  28 CALM      30.25S
RAWLINS        FAIR      74  39  28 VRB5      30.24F
SARATOGA       FAIR      72  41  33 NW3       30.26S
LARAMIE        FAIR      72  43  35 CALM      30.25F
CHEYENNE       FAIR      81  51  35 NE8       30.15S
TORRINGTON     FAIR      76  57  51 CALM      30.02F
PINE BLUFFS    FAIR      79  50  36 E3        30.10S

$$


USA.gov is the U.S. government's official web portal to all federal, state and local government web resources and services.